Regional Weather Roundup
Issued by NWS

Home | Current Version | Previous Version | Text Only | Print | Product List | Glossary Off
Versions: 1 2 3 4 5 6 7 8 9 10 11 12 13 14 15 16 17 18 19 20 21 22 23 24 25 26 27

000
ASUS45 KCYS 241910
RWRWY

WYOMING REGIONAL WEATHER ROUNDUP
NATIONAL WEATHER SERVICE CHEYENNE WY
100 PM MDT TUE MAY 24 2016

NOTE:  "FAIR" INDICATES FEW OR NO CLOUDS BELOW 12,000 FEET
WITH NO SIGNIFICANT WEATHER AND/OR OBSTRUCTIONS TO VISIBILITY.

WYZ001-242000-
YELLOWSTONE NATIONAL PARK

CITY           SKY/WX    TMP DP  RH WIND       PRES   REMARKS
LK YELLOWSTONE   N/A     48  25  40 VRB7      29.95F
W YELLOWSTONE  NOT AVBL

$$
WYZ002>013-054>058-071-098>099-242000-
NORTHERN WYOMING

CITY           SKY/WX    TMP DP  RH WIND       PRES   REMARKS
JACKSON        PTSUNNY   54  28  37 CALM      29.90F
CODY           FAIR      57  37  47 N5        29.87F
GREYBULL       FAIR      68  29  23 VRB7      29.82F
WORLAND        FAIR      66  32  28 VRB3      29.83F
SHERIDAN       FAIR      66  41  40 E8        29.87F
BUFFALO        FAIR      63  36  36 SE12      29.89F
GILLETTE       FAIR      65  35  33 S15       29.88F
HULETT         FAIR      70  34  26 W6        29.90S
NEWCASTLE      LGT RAIN  63  30  29 SE10G22   29.91F

$$
WYZ014>020-022>026-101>103-242000-
CENTRAL WYOMING

CITY           SKY/WX    TMP DP  RH WIND       PRES   REMARKS
BIG PINEY      FAIR      55  31  39 E5        29.91F
PINEDALE       CLOUDY    54  32  43 E7        29.93F
DUBOIS         MOCLDY    54  27  35 E9        29.89F
LANDER         PTSUNNY   58  34  40 W7        29.85F
RIVERTON       FAIR      64  28  25 N5        29.86F
CASPER         FAIR      66  35  31 VRB7      29.87F
DOUGLAS        FAIR      67  43  41 SE17G26   29.88F

$$
WYZ021-027>030-104>119-242000-
SOUTHERN WYOMING

CITY           SKY/WX    TMP DP  RH WIND       PRES   REMARKS
EVANSTON       TSTM      47  36  65 CALM      29.91S
KEMMERER         N/A     46  36  66 E7        29.95R
FORT BRIDGER   MOCLDY    46  45  93 NE8       29.96F
ROCK SPRINGS   PTSUNNY   61  27  27 SE15      29.87F
DIXON          MOCLDY    65  26  23 W9G17     29.94S
RAWLINS        PTSUNNY   62  29  28 SW8       29.92F
SARATOGA       MOCLDY    63  21  20 SW15      29.93S
LARAMIE        PTSUNNY   59  41  51 SE26G38   29.94S
CHEYENNE       FAIR      64  45  49 S25G35    29.95F
TORRINGTON     PTSUNNY   71  46  40 S22G28    29.88F
PINE BLUFFS    FAIR      70  43  37 S20G28    29.94F

$$




USA.gov is the U.S. government's official web portal to all federal, state and local government web resources and services.